| time (UTC) | temp F | wind direction | speed knots | gust knots | rain 1hr in | rain 24hr in | rain mn in | humidity % | barometer mb |
| 20260504181148 | 74 | 213 | 6.1 | 11.3 | 0.00 | 0.00 | 0.00 | 42 | 1016.6 |
| 20260504180647 | 74 | 197 | 5.2 | 9.6 | 0.00 | 0.00 | 0.00 | 42 | 1016.6 |
| 20260504180147 | 75 | 185 | 7.0 | 13.0 | 0.00 | 0.00 | 0.00 | 42 | 1016.9 |
| 20260504175647 | 75 | 195 | 7.8 | 13.0 | 0.00 | 0.00 | 0.00 | 43 | 1016.9 |
| 20260504175147 | 75 | 195 | 7.0 | 13.0 | 0.00 | 0.00 | 0.00 | 44 | 1016.6 |
| 20260504174647 | 75 | 219 | 8.7 | 9.6 | 0.00 | 0.00 | 0.00 | 43 | 1016.9 |
| 20260504174146 | 75 | 205 | 6.1 | 13.0 | 0.00 | 0.00 | 0.00 | 41 | 1017.3 |
| 20260504173646 | 75 | 158 | 7.0 | 8.7 | 0.00 | 0.00 | 0.00 | 44 | 1016.9 |
| 20260504173147 | 75 | 168 | 2.6 | 6.1 | 0.00 | 0.00 | 0.00 | 45 | 1016.6 |
| 20260504172647 | 75 | 207 | 5.2 | 6.1 | 0.00 | 0.00 | 0.00 | 44 | 1016.9 |
| 20260504172147 | 75 | 202 | 6.1 | 9.6 | 0.00 | 0.00 | 0.00 | 44 | 1016.9 |
| 20260504171647 | 75 | 173 | 2.6 | 7.8 | 0.00 | 0.00 | 0.00 | 45 | 1016.9 |
| 20260504171148 | 75 | 161 | 5.2 | 9.6 | 0.00 | 0.00 | 0.00 | 46 | 1016.9 |
| 20260504170650 | 74 | 152 | 7.8 | 12.2 | 0.00 | 0.00 | 0.00 | 45 | 1016.9 |
| 20260504170146 | 75 | 140 | 4.3 | 11.3 | 0.00 | 0.00 | 0.00 | 46 | 1016.9 |
| 20260504160148 | 74 | 165 | 5.2 | 7.0 | 0.00 | 0.00 | 0.00 | 46 | 1017.3 |
| 20260504151147 | 73 | 153 | 5.2 | 7.8 | 0.00 | 0.00 | 0.00 | 49 | 1017.9 |
| 20260504150647 | 72 | 185 | 4.3 | 8.7 | 0.00 | 0.00 | 0.00 | 46 | 1017.9 |
| 20260504150146 | 72 | 168 | 4.3 | 7.8 | 0.00 | 0.00 | 0.00 | 46 | 1017.6 |
| 20260504141149 | 71 | 194 | 3.5 | 4.3 | 0.00 | 0.00 | 0.00 | 56 | 1017.9 |
| 20260504140647 | 70 | 166 | 2.6 | 3.5 | 0.00 | 0.00 | 0.00 | 59 | 1017.9 |
| 20260504140146 | 70 | 152 | 0.9 | 3.5 | 0.00 | 0.00 | 0.00 | 56 | 1017.6 |
| 20260504130648 | 67 | 223 | 2.6 | 2.6 | 0.00 | 0.00 | 0.00 | 66 | 1017.9 |
| 20260504130146 | 66 | 180 | 0.0 | 1.7 | 0.00 | 0.00 | 0.00 | 68 | 1017.6 |
| 20260504120148 | 60 | 162 | 0.9 | 0.9 | 0.00 | 0.00 | 0.00 | 82 | 1017.3 |
| 20260504110646 | 58 | 141 | 0.0 | 1.7 | 0.00 | 0.00 | 0.00 | 85 | 1017.3 |
| 20260504110147 | 58 | 145 | 0.9 | 0.9 | 0.00 | 0.00 | 0.00 | 84 | 1016.9 |
| 20260504100149 | 60 | 193 | 0.9 | 1.7 | 0.00 | 0.00 | 0.00 | 79 | 1017.3 |
| 20260504081646 | 60 | 210 | 0.9 | 0.9 | 0.00 | 0.00 | 0.00 | 79 | 1017.3 |
| 20260504081147 | 60 | 235 | 0.9 | 0.9 | 0.00 | 0.00 | 0.00 | 79 | 1016.9 |
| 20260504080647 | 60 | 174 | 0.9 | 1.7 | 0.00 | 0.00 | 0.00 | 78 | 1017.3 |
| 20260504080147 | 60 | 229 | 0.0 | 0.9 | 0.00 | 0.00 | 0.00 | 78 | 1017.3 |
| 20260504070148 | 62 | 166 | 2.6 | 3.5 | 0.00 | 0.00 | 0.00 | 76 | 1017.6 |
| 20260504060146 | 63 | 197 | 1.7 | 1.7 | 0.00 | 0.00 | 0.00 | 72 | 1018.3 |
| 20260504050646 | 64 | 171 | 2.6 | 4.3 | 0.00 | 0.00 | 0.00 | 66 | 1019.0 |
| 20260504050146 | 64 | 210 | 1.7 | 2.6 | 0.00 | 0.00 | 0.00 | 66 | 1019.0 |
| 20260504045646 | 64 | 203 | 1.7 | 2.6 | 0.00 | 0.00 | 0.00 | 66 | 1019.0 |
| 20260504045147 | 64 | 209 | 2.6 | 3.5 | 0.00 | 0.00 | 0.00 | 66 | 1019.0 |
| 20260504044646 | 64 | 205 | 0.9 | 2.6 | 0.00 | 0.00 | 0.00 | 66 | 1019.0 |
| 20260504044146 | 64 | 199 | 2.6 | 2.6 | 0.00 | 0.00 | 0.00 | 66 | 1019.0 |
| 20260504043647 | 64 | 199 | 1.7 | 2.6 | 0.00 | 0.00 | 0.00 | 65 | 1019.0 |
| 20260504043146 | 64 | 212 | 1.7 | 3.5 | 0.00 | 0.00 | 0.00 | 66 | 1019.0 |
| 20260504042647 | 64 | 155 | 2.6 | 4.3 | 0.00 | 0.00 | 0.00 | 67 | 1019.0 |
| 20260504042146 | 64 | 221 | 2.6 | 3.5 | 0.00 | 0.00 | 0.00 | 67 | 1019.0 |
| 20260504041646 | 64 | 220 | 4.3 | 5.2 | 0.00 | 0.00 | 0.00 | 67 | 1019.0 |
| 20260504041146 | 64 | 226 | 3.5 | 7.0 | 0.00 | 0.00 | 0.00 | 68 | 1019.3 |
| 20260504040646 | 64 | 205 | 4.3 | 5.2 | 0.00 | 0.00 | 0.00 | 69 | 1019.0 |
| 20260504040146 | 65 | 216 | 3.5 | 5.2 | 0.00 | 0.00 | 0.00 | 68 | 1019.0 |
| 20260504035647 | 65 | 222 | 5.2 | 7.8 | 0.00 | 0.00 | 0.00 | 68 | 1019.3 |
| 20260504035147 | 65 | 252 | 2.6 | 5.2 | 0.00 | 0.00 | 0.00 | 67 | 1019.0 |
| 20260504034646 | 65 | 203 | 3.5 | 3.5 | 0.00 | 0.00 | 0.00 | 66 | 1019.0 |
| 20260504034149 | 65 | 176 | 2.6 | 4.3 | 0.00 | 0.00 | 0.00 | 66 | 1019.0 |
| 20260504033647 | 65 | 199 | 3.5 | 4.3 | 0.00 | 0.00 | 0.00 | 67 | 1019.0 |
| 20260504033146 | 65 | 177 | 1.7 | 4.3 | 0.00 | 0.00 | 0.00 | 67 | 1019.0 |
| 20260504032651 | 65 | 168 | 3.5 | 4.3 | 0.00 | 0.00 | 0.00 | 67 | 1019.0 |
| 20260504032147 | 66 | 163 | 0.9 | 2.6 | 0.00 | 0.00 | 0.00 | 66 | 1019.0 |
| 20260504031647 | 66 | 180 | 1.7 | 2.6 | 0.00 | 0.00 | 0.00 | 66 | 1019.0 |
| 20260504031146 | 65 | 169 | 1.7 | 2.6 | 0.00 | 0.00 | 0.00 | 66 | 1019.0 |
| 20260504030646 | 66 | 161 | 2.6 | 2.6 | 0.00 | 0.00 | 0.00 | 66 | 1019.0 |
| 20260504030147 | 66 | 151 | 1.7 | 2.6 | 0.00 | 0.00 | 0.00 | 65 | 1019.0 |
| 20260504025647 | 66 | 155 | 2.6 | 2.6 | 0.00 | 0.00 | 0.00 | 64 | 1019.0 |
| 20260504025147 | 66 | 141 | 2.6 | 2.6 | 0.00 | 0.00 | 0.00 | 63 | 1018.6 |
| 20260504024646 | 66 | 167 | 0.9 | 1.7 | 0.00 | 0.00 | 0.00 | 62 | 1019.0 |
| 20260504024151 | 67 | 44 | 0.0 | 2.6 | 0.00 | 0.00 | 0.00 | 60 | 1019.0 |
| 20260504023649 | 67 | 146 | 2.6 | 2.6 | 0.00 | 0.00 | 0.00 | 59 | 1018.6 |
| 20260504023146 | 67 | 117 | 0.0 | 1.7 | 0.00 | 0.00 | 0.00 | 59 | 1018.6 |
| 20260504022647 | 67 | 142 | 1.7 | 2.6 | 0.00 | 0.00 | 0.00 | 58 | 1019.0 |
| 20260504022147 | 67 | 139 | 2.6 | 3.5 | 0.00 | 0.00 | 0.00 | 58 | 1018.6 |
| 20260504021646 | 68 | 149 | 1.7 | 1.7 | 0.00 | 0.00 | 0.00 | 57 | 1018.6 |
| 20260504021146 | 68 | 127 | 0.0 | 1.7 | 0.00 | 0.00 | 0.00 | 55 | 1018.3 |
| 20260504020646 | 68 | 127 | 2.6 | 3.5 | 0.00 | 0.00 | 0.00 | 54 | 1018.6 |
| 20260504020146 | 69 | 108 | 1.7 | 2.6 | 0.00 | 0.00 | 0.00 | 53 | 1018.3 |
| 20260504015646 | 69 | 165 | 1.7 | 3.5 | 0.00 | 0.00 | 0.00 | 51 | 1018.3 |
| 20260504015147 | 69 | 171 | 1.7 | 2.6 | 0.00 | 0.00 | 0.00 | 49 | 1018.3 |
| 20260504014647 | 69 | 197 | 1.7 | 2.6 | 0.00 | 0.00 | 0.00 | 49 | 1018.3 |
| 20260504014146 | 69 | 205 | 1.7 | 3.5 | 0.00 | 0.00 | 0.00 | 49 | 1018.3 |
| 20260504013646 | 69 | 197 | 2.6 | 3.5 | 0.00 | 0.00 | 0.00 | 48 | 1017.9 |
| 20260504013146 | 70 | 199 | 1.7 | 2.6 | 0.00 | 0.00 | 0.00 | 47 | 1018.3 |
| 20260504012647 | 70 | 212 | 0.9 | 2.6 | 0.00 | 0.00 | 0.00 | 46 | 1017.9 |
| 20260504012146 | 70 | 220 | 0.9 | 0.9 | 0.00 | 0.00 | 0.00 | 46 | 1017.9 |
| 20260504011648 | 71 | 190 | 0.0 | 1.7 | 0.00 | 0.00 | 0.00 | 44 | 1018.3 |
| 20260504011148 | 71 | 212 | 0.9 | 0.9 | 0.00 | 0.00 | 0.00 | 44 | 1017.9 |
| 20260504010646 | 71 | 255 | 0.0 | 1.7 | 0.00 | 0.00 | 0.00 | 43 | 1017.9 |
| 20260504010146 | 72 | 223 | 0.9 | 0.9 | 0.00 | 0.00 | 0.00 | 42 | 1017.9 |
| 20260504005646 | 72 | 196 | 0.0 | 1.7 | 0.00 | 0.00 | 0.00 | 41 | 1017.9 |
| 20260504005146 | 73 | 265 | 0.0 | 1.7 | 0.00 | 0.00 | 0.00 | 40 | 1017.9 |
| 20260504004646 | 73 | 315 | 0.0 | 0.9 | 0.00 | 0.00 | 0.00 | 39 | 1017.6 |
| 20260504004146 | 73 | 354 | 1.7 | 1.7 | 0.00 | 0.00 | 0.00 | 39 | 1017.9 |
| 20260504003647 | 73 | 316 | 1.7 | 1.7 | 0.00 | 0.00 | 0.00 | 39 | 1017.6 |
| 20260504003147 | 73 | 295 | 1.7 | 2.6 | 0.00 | 0.00 | 0.00 | 38 | 1017.6 |
| 20260504002646 | 74 | 277 | 0.0 | 2.6 | 0.00 | 0.00 | 0.00 | 38 | 1017.6 |
| 20260504002147 | 74 | 337 | 0.0 | 3.5 | 0.00 | 0.00 | 0.00 | 38 | 1017.6 |
| 20260504001646 | 75 | 286 | 2.6 | 4.3 | 0.00 | 0.00 | 0.00 | 37 | 1017.6 |
| 20260504001146 | 75 | 279 | 1.7 | 3.5 | 0.00 | 0.00 | 0.00 | 36 | 1017.3 |
| 20260504000646 | 75 | 300 | 1.7 | 4.3 | 0.00 | 0.00 | 0.00 | 36 | 1017.6 |
| 20260504000148 | 75 | 294 | 2.6 | 4.3 | 0.00 | 0.00 | 0.00 | 36 | 1017.3 |
| 20260503235646 | 75 | 311 | 2.6 | 3.5 | 0.00 | 0.00 | 0.00 | 35 | 1017.6 |
| 20260503235146 | 75 | 12 | 1.7 | 4.3 | 0.00 | 0.00 | 0.00 | 36 | 1017.6 |
| 20260503234646 | 75 | 317 | 0.9 | 4.3 | 0.00 | 0.00 | 0.00 | 35 | 1017.6 |
| 20260503234146 | 75 | 309 | 2.6 | 5.2 | 0.00 | 0.00 | 0.00 | 36 | 1017.9 |
| 20260503233646 | 75 | 287 | 3.5 | 7.8 | 0.00 | 0.00 | 0.00 | 35 | 1017.9 |
| 20260503233146 | 76 | 298 | 3.5 | 5.2 | 0.00 | 0.00 | 0.00 | 36 | 1017.6 |
| 20260503232646 | 75 | 330 | 4.3 | 4.3 | 0.00 | 0.00 | 0.00 | 36 | 1017.9 |
| 20260503232147 | 75 | 312 | 6.1 | 9.6 | 0.00 | 0.00 | 0.00 | 35 | 1017.6 |
| 20260503231646 | 75 | 301 | 2.6 | 7.8 | 0.00 | 0.00 | 0.00 | 35 | 1017.9 |
| 20260503231147 | 76 | 293 | 7.8 | 9.6 | 0.00 | 0.00 | 0.00 | 35 | 1017.6 |
| 20260503230647 | 76 | 306 | 5.2 | 6.1 | 0.00 | 0.00 | 0.00 | 35 | 1017.9 |
| 20260503230146 | 76 | 280 | 4.3 | 6.1 | 0.00 | 0.00 | 0.00 | 35 | 1017.6 |
| 20260503225647 | 75 | 289 | 7.0 | 7.8 | 0.00 | 0.00 | 0.00 | 35 | 1017.9 |
| 20260503225146 | 76 | 301 | 4.3 | 6.1 | 0.00 | 0.00 | 0.00 | 34 | 1017.9 |
| 20260503224647 | 77 | 315 | 3.5 | 6.1 | 0.00 | 0.00 | 0.00 | 35 | 1017.9 |
| 20260503224146 | 77 | 309 | 2.6 | 3.5 | 0.00 | 0.00 | 0.00 | 34 | 1017.9 |
| 20260503223647 | 77 | 311 | 2.6 | 6.1 | 0.00 | 0.00 | 0.00 | 35 | 1017.9 |
| 20260503223146 | 76 | 282 | 0.9 | 4.3 | 0.00 | 0.00 | 0.00 | 35 | 1017.9 |
| 20260503222647 | 76 | 30 | 6.1 | 7.8 | 0.00 | 0.00 | 0.00 | 34 | 1017.9 |
| 20260503222147 | 76 | 338 | 1.7 | 6.1 | 0.00 | 0.00 | 0.00 | 35 | 1017.9 |
| 20260503221646 | 75 | 31 | 1.7 | 6.1 | 0.00 | 0.00 | 0.00 | 35 | 1017.9 |
| 20260503221146 | 76 | 283 | 5.2 | 7.8 | 0.00 | 0.00 | 0.00 | 34 | 1017.9 |
| 20260503220648 | 75 | 314 | 6.1 | 9.6 | 0.00 | 0.00 | 0.00 | 34 | 1017.9 |
| 20260503220146 | 75 | 293 | 0.0 | 6.1 | 0.00 | 0.00 | 0.00 | 35 | 1018.3 |
| 20260503215647 | 76 | 308 | 5.2 | 7.0 | 0.00 | 0.00 | 0.00 | 34 | 1017.9 |
| 20260503215146 | 77 | 330 | 3.5 | 3.5 | 0.00 | 0.00 | 0.00 | 33 | 1018.3 |
| 20260503214646 | 77 | 20 | 3.5 | 8.7 | 0.00 | 0.00 | 0.00 | 34 | 1018.6 |
| 20260503214151 | 75 | 294 | 1.7 | 7.0 | 0.00 | 0.00 | 0.00 | 33 | 1018.3 |
| 20260503213647 | 75 | 76 | 2.6 | 6.1 | 0.00 | 0.00 | 0.00 | 34 | 1018.6 |
| 20260503213146 | 75 | 292 | 4.3 | 7.8 | 0.00 | 0.00 | 0.00 | 34 | 1018.6 |
| 20260503212646 | 76 | 315 | 3.5 | 7.8 | 0.00 | 0.00 | 0.00 | 34 | 1018.6 |
| 20260503212148 | 75 | 140 | 1.7 | 6.1 | 0.00 | 0.00 | 0.00 | 34 | 1018.6 |
| 20260503211646 | 75 | 15 | 5.2 | 7.8 | 0.00 | 0.00 | 0.00 | 33 | 1019.0 |
| 20260503211147 | 75 | 285 | 6.1 | 6.1 | 0.00 | 0.00 | 0.00 | 32 | 1019.0 |
| 20260503210646 | 76 | 285 | 3.5 | 7.8 | 0.00 | 0.00 | 0.00 | 31 | 1019.0 |
| 20260503210147 | 76 | 357 | 3.5 | 7.8 | 0.00 | 0.00 | 0.00 | 32 | 1019.0 |
| 20260503205647 | 77 | 39 | 3.5 | 8.7 | 0.00 | 0.00 | 0.00 | 31 | 1019.0 |
| 20260503205147 | 76 | 35 | 1.7 | 4.3 | 0.00 | 0.00 | 0.00 | 32 | 1019.0 |
| 20260503204647 | 76 | 4 | 2.6 | 6.1 | 0.00 | 0.00 | 0.00 | 31 | 1019.3 |
| 20260503204146 | 76 | 278 | 1.7 | 5.2 | 0.00 | 0.00 | 0.00 | 32 | 1019.3 |
| 20260503203647 | 75 | 1 | 1.7 | 7.0 | 0.00 | 0.00 | 0.00 | 32 | 1019.6 |
| 20260503203147 | 75 | 56 | 1.7 | 9.6 | 0.00 | 0.00 | 0.00 | 32 | 1019.6 |
| 20260503202646 | 76 | 11 | 4.3 | 7.8 | 0.00 | 0.00 | 0.00 | 33 | 1019.6 |
| 20260503202147 | 75 | 36 | 4.3 | 7.0 | 0.00 | 0.00 | 0.00 | 31 | 1019.6 |
| 20260503201646 | 75 | 41 | 6.1 | 7.8 | 0.00 | 0.00 | 0.00 | 33 | 1019.6 |
| 20260503201146 | 74 | 19 | 2.6 | 6.1 | 0.00 | 0.00 | 0.00 | 33 | 1020.0 |
| 20260503200646 | 74 | 45 | 1.7 | 7.0 | 0.00 | 0.00 | 0.00 | 35 | 1020.0 |
| 20260503200147 | 75 | 20 | 4.3 | 5.2 | 0.00 | 0.00 | 0.00 | 33 | 1020.0 |
| 20260503195646 | 75 | 4 | 4.3 | 7.8 | 0.00 | 0.00 | 0.00 | 33 | 1020.0 |
| 20260503195146 | 74 | 346 | 7.0 | 9.6 | 0.00 | 0.00 | 0.00 | 34 | 1020.0 |
| 20260503194646 | 75 | 294 | 2.6 | 9.6 | 0.00 | 0.00 | 0.00 | 33 | 1020.0 |
| 20260503194147 | 74 | 322 | 4.3 | 9.6 | 0.00 | 0.00 | 0.00 | 34 | 1020.3 |
| 20260503193646 | 75 | 315 | 6.1 | 8.7 | 0.00 | 0.00 | 0.00 | 33 | 1020.3 |
| 20260503193146 | 75 | 45 | 3.5 | 7.8 | 0.00 | 0.00 | 0.00 | 32 | 1020.3 |
| 20260503192646 | 75 | 18 | 3.5 | 8.7 | 0.00 | 0.00 | 0.00 | 33 | 1020.3 |
| 20260503192146 | 74 | 315 | 5.2 | 8.7 | 0.00 | 0.00 | 0.00 | 33 | 1020.7 |
| 20260503191647 | 75 | 18 | 0.9 | 7.0 | 0.00 | 0.00 | 0.00 | 32 | 1020.7 |
| 20260503191146 | 75 | 10 | 5.2 | 8.7 | 0.00 | 0.00 | 0.00 | 33 | 1020.7 |
| 20260503190647 | 75 | 335 | 4.3 | 7.8 | 0.00 | 0.00 | 0.00 | 33 | 1020.7 |
| 20260503190147 | 75 | 32 | 5.2 | 9.6 | 0.00 | 0.00 | 0.00 | 34 | 1020.7 |
| 20260503185647 | 75 | 321 | 7.0 | 7.8 | 0.00 | 0.00 | 0.00 | 34 | 1020.7 |
| 20260503185146 | 74 | 313 | 5.2 | 8.7 | 0.00 | 0.00 | 0.00 | 34 | 1020.7 |
| 20260503184646 | 74 | 1 | 3.5 | 7.8 | 0.00 | 0.00 | 0.00 | 35 | 1021.0 |
| 20260503184147 | 75 | 321 | 4.3 | 10.4 | 0.00 | 0.00 | 0.00 | 36 | 1021.0 |
| 20260503183646 | 75 | 35 | 4.3 | 7.0 | 0.00 | 0.00 | 0.00 | 34 | 1021.0 |
| 20260503183147 | 74 | 15 | 4.3 | 5.2 | 0.00 | 0.00 | 0.00 | 33 | 1021.0 |
| 20260503182646 | 74 | 300 | 7.0 | 7.8 | 0.00 | 0.00 | 0.00 | 32 | 1021.3 |
| 20260503182146 | 74 | 41 | 0.9 | 5.2 | 0.00 | 0.00 | 0.00 | 33 | 1021.0 |
| 20260503181646 | 74 | 337 | 3.5 | 7.8 | 0.00 | 0.00 | 0.00 | 32 | 1021.3 |